• în Republica Moldova
  • Lista ţărilor
  • Pe 7 zile
  • Temperatura apei
  • Hartă satelitară
  • Meteo pe hartă
  • Widget-uri
  • user-avatar
    Intrare

    Meteo pe oră la Ondjiwa

    Astăzi, 25 Ianuarie, Miercuri

    Timp Temperatura Precipitaţii Vânt Presiune Umiditate
    00:00 +19°C° 0,1 mm 4 m/s 666 mmHg 84%
    01:00 +19°C° 0,1 mm 4 m/s 666 mmHg 84%
    02:00 +18°C° 0,1 mm 3 m/s 666 mmHg 84%
    03:00 +18°C° 0,1 mm 3 m/s 666 mmHg 85%
    04:00 +18°C° 0,1 mm 3 m/s 666 mmHg 85%
    05:00 +18°C° 0 mm 3 m/s 666 mmHg 85%
    06:00 +18°C° 0 mm 3 m/s 666 mmHg 84%
    07:00 +18°C° 0 mm 3 m/s 666 mmHg 83%
    08:00 +20°C° 0 mm 3 m/s 667 mmHg 78%
    09:00 +21°C° 0 mm 3 m/s 667 mmHg 73%
    10:00 +22°C° 0 mm 3 m/s 667 mmHg 67%
    11:00 +25°C° 0 mm 3 m/s 667 mmHg 63%
    12:00 +26°C° 0 mm 3 m/s 667 mmHg 59%
    13:00 +27°C° 0 mm 3 m/s 667 mmHg 56%
    14:00 +27°C° 0 mm 3 m/s 667 mmHg 54%
    15:00 +28°C° 0 mm 3 m/s 666 mmHg 53%
    16:00 +28°C° 0 mm 3 m/s 666 mmHg 52%
    17:00 +27°C° 0 mm 3 m/s 666 mmHg 57%
    18:00 +26°C° 0 mm 2 m/s 666 mmHg 62%
    19:00 +24°C° 0 mm 2 m/s 666 mmHg 67%
    20:00 +24°C° 0 mm 2 m/s 667 mmHg 70%
    21:00 +23°C° 0 mm 2 m/s 667 mmHg 73%
    22:00 +23°C° 0 mm 2 m/s 668 mmHg 76%
    23:00 +21°C° 0 mm 2 m/s 667 mmHg 77%

    Mâine, 26 Ianuarie, Joi

    Timp Temperatura Precipitaţii Vânt Presiune Umiditate
    00:00 +21°C° 0 mm 2 m/s 667 mmHg 78%
    01:00 +20°C° 0 mm 2 m/s 667 mmHg 80%
    02:00 +20°C° 0 mm 2 m/s 667 mmHg 81%
    03:00 +20°C° 0 mm 2 m/s 666 mmHg 83%
    04:00 +19°C° 0 mm 2 m/s 666 mmHg 84%
    05:00 +20°C° 0 mm 2 m/s 667 mmHg 82%
    06:00 +20°C° 0 mm 2 m/s 667 mmHg 80%
    07:00 +20°C° 0 mm 2 m/s 667 mmHg 78%
    08:00 +23°C° 0 mm 2 m/s 668 mmHg 71%
    09:00 +25°C° 0 mm 2 m/s 668 mmHg 64%
    10:00 +26°C° 0 mm 1 m/s 668 mmHg 57%
    11:00 +27°C° 0 mm 1 m/s 668 mmHg 54%
    12:00 +28°C° 0 mm 1 m/s 668 mmHg 51%
    13:00 +29°C° 0 mm 1 m/s 667 mmHg 48%
    14:00 +29°C° 0 mm 2 m/s 667 mmHg 47%
    15:00 +29°C° 0 mm 2 m/s 666 mmHg 46%
    16:00 +30°C° 0 mm 3 m/s 666 mmHg 45%
    17:00 +28°C° 0 mm 2 m/s 666 mmHg 50%
    18:00 +27°C° 0 mm 2 m/s 666 mmHg 55%
    19:00 +26°C° 0 mm 2 m/s 665 mmHg 60%
    20:00 +25°C° 0 mm 1 m/s 666 mmHg 62%
    21:00 +25°C° 0 mm 1 m/s 666 mmHg 64%
    22:00 +24°C° 0 mm 1 m/s 667 mmHg 66%
    23:00 +24°C° 0 mm 1 m/s 667 mmHg 66%

    Poimâine, 27 Ianuarie, Vineri

    Timp Temperatura Precipitaţii Vânt Presiune Umiditate
    00:00 +24°C° 0 mm 2 m/s 666 mmHg 66%
    01:00 +23°C° 0 mm 2 m/s 666 mmHg 67%
    02:00 +23°C° 0 mm 2 m/s 666 mmHg 67%
    03:00 +21°C° 0 mm 2 m/s 666 mmHg 68%
    04:00 +21°C° 0 mm 2 m/s 665 mmHg 68%
    05:00 +21°C° 0 mm 2 m/s 666 mmHg 66%
    06:00 +21°C° 0 mm 2 m/s 666 mmHg 64%
    07:00 +23°C° 0 mm 2 m/s 667 mmHg 62%
    08:00 +24°C° 0 mm 2 m/s 667 mmHg 55%
    09:00 +26°C° 0 mm 2 m/s 668 mmHg 49%
    10:00 +28°C° 0 mm 2 m/s 668 mmHg 42%
    11:00 +30°C° 0 mm 2 m/s 668 mmHg 40%
    12:00 +31°C° 0 mm 2 m/s 667 mmHg 37%
    13:00 +32°C° 0 mm 2 m/s 667 mmHg 35%
    14:00 +32°C° 0 mm 2 m/s 666 mmHg 35%
    15:00 +32°C° 0 mm 2 m/s 665 mmHg 36%
    16:00 +32°C° 0 mm 2 m/s 665 mmHg 36%
    17:00 +31°C° 0,1 mm 2 m/s 665 mmHg 42%
    18:00 +29°C° 0,1 mm 2 m/s 665 mmHg 48%
    19:00 +28°C° 0,1 mm 2 m/s 665 mmHg 54%
    20:00 +27°C° 0,1 mm 3 m/s 665 mmHg 57%
    21:00 +26°C° 0,1 mm 3 m/s 666 mmHg 61%
    22:00 +26°C° 0,1 mm 3 m/s 666 mmHg 65%
    23:00 +25°C° 0,2 mm 3 m/s 666 mmHg 67%

    28 Ianuarie, Sâmbătă

    Timp Temperatura Precipitaţii Vânt Presiune Umiditate
    00:00 +23°C° 0,2 mm 4 m/s 665 mmHg 68%
    01:00 +22°C° 0,2 mm 4 m/s 665 mmHg 70%
    02:00 +22°C° 0 mm 3 m/s 665 mmHg 72%
    03:00 +21°C° 0 mm 3 m/s 664 mmHg 73%
    04:00 +21°C° 0 mm 3 m/s 664 mmHg 74%
    05:00 +21°C° 0 mm 3 m/s 665 mmHg 73%
    06:00 +21°C° 0 mm 3 m/s 665 mmHg 71%
    07:00 +21°C° 0 mm 3 m/s 666 mmHg 69%
    08:00 +25°C° 0 mm 3 m/s 667 mmHg 60%
    09:00 +27°C° 0 mm 3 m/s 667 mmHg 51%
    10:00 +29°C° 0 mm 3 m/s 667 mmHg 42%
    11:00 +30°C° 0 mm 3 m/s 667 mmHg 39%
    12:00 +33°C° 0 mm 3 m/s 667 mmHg 36%
    13:00 +34°C° 0 mm 3 m/s 666 mmHg 33%
    14:00 +34°C° 0 mm 4 m/s 666 mmHg 33%
    15:00 +34°C° 0 mm 4 m/s 665 mmHg 32%
    16:00 +33°C° 0 mm 4 m/s 665 mmHg 32%
    17:00 +32°C° 0 mm 4 m/s 665 mmHg 33%
    18:00 +30°C° 0 mm 3 m/s 665 mmHg 33%
    19:00 +28°C° 0 mm 3 m/s 665 mmHg 34%
    20:00 +27°C° 0 mm 4 m/s 666 mmHg 33%
    21:00 +26°C° 0 mm 4 m/s 666 mmHg 33%
    22:00 +25°C° 0 mm 5 m/s 666 mmHg 33%
    23:00 +23°C° 0 mm 4 m/s 666 mmHg 36%

    29 Ianuarie, Duminică

    Timp Temperatura Precipitaţii Vânt Presiune Umiditate
    00:00 +22°C° 0 mm 4 m/s 666 mmHg 39%
    01:00 +21°C° 0 mm 3 m/s 665 mmHg 42%
    02:00 +21°C° 0 mm 3 m/s 665 mmHg 45%
    03:00 +20°C° 0 mm 2 m/s 665 mmHg 47%
    04:00 +20°C° 0 mm 2 m/s 665 mmHg 49%
    05:00 +20°C° 0 mm 2 m/s 666 mmHg 50%
    06:00 +20°C° 0 mm 2 m/s 666 mmHg 50%
    07:00 +20°C° 0 mm 2 m/s 667 mmHg 51%
    08:00 +22°C° 0 mm 3 m/s 667 mmHg 43%
    09:00 +25°C° 0 mm 3 m/s 668 mmHg 34%
    10:00 +27°C° 0 mm 3 m/s 668 mmHg 26%
    11:00 +29°C° 0 mm 4 m/s 668 mmHg 22%
    12:00 +30°C° 0 mm 4 m/s 667 mmHg 18%
    13:00 +33°C° 0 mm 5 m/s 667 mmHg 13%
    14:00 +33°C° 0 mm 5 m/s 667 mmHg 13%
    15:00 +33°C° 0 mm 5 m/s 666 mmHg 13%
    16:00 +33°C° 0 mm 5 m/s 666 mmHg 12%
    17:00 +30°C° 0 mm 5 m/s 666 mmHg 15%
    18:00 +28°C° 0 mm 4 m/s 666 mmHg 17%
    19:00 +27°C° 0 mm 3 m/s 666 mmHg 20%
    20:00 +26°C° 0 mm 3 m/s 666 mmHg 21%
    21:00 +25°C° 0 mm 3 m/s 666 mmHg 23%
    22:00 +23°C° 0 mm 4 m/s 667 mmHg 24%
    23:00 +22°C° 0 mm 3 m/s 666 mmHg 28%

    30 Ianuarie, Luni

    Timp Temperatura Precipitaţii Vânt Presiune Umiditate
    00:00 +21°C° 0 mm 3 m/s 666 mmHg 31%
    01:00 +21°C° 0 mm 3 m/s 666 mmHg 34%
    02:00 +20°C° 0 mm 2 m/s 666 mmHg 36%
    03:00 +20°C° 0 mm 2 m/s 666 mmHg 38%
    04:00 +20°C° 0 mm 2 m/s 666 mmHg 40%
    05:00 +21°C° 0 mm 1 m/s 666 mmHg 41%
    06:00 +21°C° 0 mm 1 m/s 667 mmHg 43%
    07:00 +22°C° 0 mm 1 m/s 667 mmHg 44%
    08:00 +23°C° 0 mm 1 m/s 667 mmHg 39%
    09:00 +25°C° 0 mm 2 m/s 668 mmHg 33%
    10:00 +27°C° 0 mm 2 m/s 668 mmHg 27%
    11:00 +29°C° 0 mm 3 m/s 668 mmHg 24%
    12:00 +31°C° 0 mm 3 m/s 667 mmHg 20%
    13:00 +33°C° 0 mm 4 m/s 667 mmHg 16%
    14:00 +34°C° 0 mm 4 m/s 667 mmHg 15%
    15:00 +34°C° 0 mm 4 m/s 666 mmHg 14%
    16:00 +34°C° 0 mm 4 m/s 666 mmHg 13%
    17:00 +31°C° 0 mm 3 m/s 666 mmHg 15%
    18:00 +29°C° 0 mm 3 m/s 666 mmHg 18%
    19:00 +27°C° 0 mm 2 m/s 666 mmHg 20%
    20:00 +26°C° 0 mm 2 m/s 666 mmHg 22%
    21:00 +25°C° 0 mm 2 m/s 666 mmHg 24%
    22:00 +24°C° 0 mm 2 m/s 666 mmHg 25%
    23:00 +22°C° 0 mm 3 m/s 666 mmHg 28%
    Arată mai mult